Location: Whitehorse
(60.7170°N, 135.0500°W)
Time: 14:09:26
(UTC-07:00)

SL-16 R/B - Visible Passes

Search period start: 25 October 2014 00:00
Search period end: 03 November 2014 23:00
Orbit: 840 x 850 km, 71.0° (Epoch: 24 October)

Date Brightness Start Highest point End Pass type
(mag) Time Alt. Az. Time Alt. Az. Time Alt. Az.
25 Oct 4.0 03:26:07 26° ENE 03:26:07 26° ENE 03:29:01 10° E visible
25 Oct 2.3 05:08:06 67° N 05:08:45 75° NE 05:14:26 10° SE visible
25 Oct 2.7 06:50:04 24° WNW 06:52:34 35° WSW 06:57:39 10° S visible
25 Oct 3.4 20:07:05 10° SSE 20:11:05 20° ESE 20:11:13 20° E visible
25 Oct 2.4 21:48:41 10° SSW 21:53:11 55° S 21:53:11 55° S visible
25 Oct 4.2 23:33:19 10° WSW 23:35:09 20° W 23:35:09 20° W visible
26 Oct 4.6 03:13:54 15° E 03:13:54 15° E 03:15:02 10° E visible
26 Oct 2.6 04:55:54 57° ESE 04:55:54 57° ESE 05:00:28 10° SE visible
26 Oct 2.7 06:37:54 34° W 06:38:37 36° WSW 06:43:43 10° S visible
26 Oct 3.4 19:53:13 10° SE 19:57:08 20° E 19:58:36 18° E visible
26 Oct 2.1 21:34:44 10° SSW 21:40:22 68° ESE 21:40:33 67° ESE visible
26 Oct 3.7 23:19:20 10° WSW 23:22:29 31° W 23:22:29 31° W visible
27 Oct 3.7 04:43:56 28° SE 04:43:56 28° SE 04:46:30 10° SE visible
27 Oct 2.9 06:25:56 33° SW 06:25:56 33° SW 06:29:48 10° S visible
27 Oct 3.5 19:39:20 10° SE 19:43:12 19° E 19:45:43 15° ENE visible
27 Oct 2.1 21:20:46 10° SSW 21:26:25 67° ESE 21:27:39 52° ENE visible
27 Oct 3.3 23:05:21 10° WSW 23:09:35 41° WNW 23:09:35 41° WNW visible
28 Oct 4.9 00:51:14 10° WNW 00:51:30 11° WNW 00:51:30 11° WNW visible
28 Oct 4.6 04:32:06 12° SE 04:32:06 12° SE 04:32:31 10° SE visible
28 Oct 3.8 06:14:07 19° SSW 06:14:07 19° SSW 06:15:52 10° S visible
28 Oct 3.5 19:25:28 10° SE 19:29:16 19° E 19:32:38 12° ENE visible
28 Oct 2.1 21:06:49 10° SSW 21:12:27 65° ESE 21:14:33 39° ENE visible
28 Oct 3.0 22:51:21 10° WSW 22:56:28 47° NW 22:56:28 47° NW visible
29 Oct 4.7 00:37:14 10° WNW 00:38:23 15° WNW 00:38:23 15° WNW visible
29 Oct 3.6 19:11:35 10° SE 19:15:19 18° E 19:19:04 10° ENE visible
29 Oct 2.1 20:52:52 10° SSW 20:58:29 64° ESE 21:01:17 30° NE visible
29 Oct 3.0 22:37:22 10° WSW 22:42:54 49° NNW 22:43:12 49° NNW visible
30 Oct 4.5 00:23:14 10° WNW 00:25:06 19° NW 00:25:06 19° NW visible
30 Oct 3.6 18:57:43 10° SE 19:01:23 18° E 19:05:03 10° ENE visible
30 Oct 2.2 20:38:55 10° SSW 20:44:31 63° ESE 20:47:55 25° NE visible
30 Oct 2.9 22:23:23 10° WSW 22:28:55 50° NW 22:29:48 46° N visible
31 Oct 4.3 00:09:14 10° WNW 00:11:42 22° NW 00:11:42 22° NW visible
31 Oct 3.7 18:43:51 10° SE 18:47:26 17° E 18:51:02 10° ENE visible
31 Oct 2.2 20:24:58 10° SSW 20:30:34 62° ESE 20:34:27 20° NE visible
31 Oct 2.9 22:09:23 10° WSW 22:14:56 50° NW 22:16:20 41° N visible
31 Oct 4.2 23:55:14 10° WNW 23:58:14 25° NW 23:58:14 25° NW visible
01 Nov 2.2 20:11:01 10° SSW 20:16:36 60° ESE 20:20:55 17° NE visible
01 Nov 2.9 21:55:24 10° WSW 22:00:57 51° NW 22:02:48 37° NNE visible
01 Nov 4.1 23:41:14 10° WNW 23:44:41 27° NW 23:44:41 27° NW visible
02 Nov 2.3 18:57:03 10° SSW 19:02:38 59° ESE 19:07:20 15° NE visible
02 Nov 2.9 20:41:24 10° WSW 20:46:58 52° NW 20:49:13 33° NNE visible
02 Nov 3.9 22:27:14 10° WNW 22:31:06 29° NNW 22:31:06 29° NNW visible
03 Nov 5.0 00:12:44 10° NW 00:12:59 11° NW 00:12:59 11° NW visible
03 Nov 2.3 18:43:06 10° SSW 18:48:40 58° ESE 18:53:43 13° NE visible
03 Nov 2.9 20:27:25 10° WSW 20:32:59 52° NW 20:35:36 30° NNE visible
03 Nov 3.8 22:13:14 10° WNW 22:17:29 30° NNW 22:17:29 30° NNW visible
